Dublin, Ireland

10:19 PM IST on April 30, 2017 (GMT +0100)
Dublin International

Weather History for EIDW - July, 2013

Change the Weather History Date:

Friday, July 26, 2013

  Actual Average Record
Temperature  
Mean Temperature 63 °F -  
Max Temperature 70 °F 65 °F 75 °F (2006)
Min Temperature 56 °F 52 °F 44 °F (2012)
Degree Days  
Heating Degree Days 2    
Growing Degree Days 13 (Base 50)    
Moisture  
Dew Point 57 °F    
Average Humidity 84    
Maximum Humidity 94    
Minimum Humidity 64    
Precipitation  
Precipitation 0.04 in 0.09 in - ()
Sea Level Pressure  
Sea Level Pressure 29.83 in    
Wind  
Wind Speed 6 mph ()    
Max Wind Speed 14 mph    
Max Gust Speed -    
Visibility 6.9 miles    
Events Rain , Thunderstorm    
Averages and records for this station are not official NWS values.
T = Trace of Precipitation, MM = Missing Value Source: Averaged Metar Reports

Daily Weather History Graph

Daily Weather History Graph

Search for Another Location

Airport or City:

Trip Planner

Search our weather history database for the weather conditions in past years. The results will help you decide how hot, cold, wet, or windy it might be!

Date:

Astronomy

Jul. 26, 2013 Rise Set
Actual Time 5:31 AM IST 9:30 PM IST
Civil Twilight 4:46 AM IST 10:15 PM IST
Nautical Twilight 3:40 AM IST 11:20 PM IST
Astronomical Twilight 2:03 AM IST 12:59 AM IST
Moon 10:44 PM IST (7/26) 10:40 AM IST (7/26)
Length of Visible Light 17h 29m
Length of Day
15h 59m
Waning Gibbous, 82% of the Moon is Illuminated
Jul 26
Waning Gibbous
Jul 29
Last Quarter
Aug 6
New
Aug 14
First Quarter
Aug 21
Full

Hourly Weather History & Observations

Time (IST) Temp. Dew Point Humidity Pressure Visibility Wind Dir Wind Speed Gust Speed Precip Events Conditions
12:00 AM 59.0 °F 57.2 °F 94% 29.83 in 6.2 mi SSW 4.6 mph - N/A   Scattered Clouds
12:30 AM 59.0 °F 57.2 °F 94% 29.83 in 6.2 mi Variable 1.2 mph - N/A   Scattered Clouds
1:00 AM 58 °F 56 °F 92% 29.83 in 19 mi SSE 4.5 mph - -   Partly Cloudy
1:00 AM 59.0 °F 57.2 °F 94% 29.83 in 6.2 mi Variable 2.3 mph - N/A   Scattered Clouds
1:30 AM 59.0 °F 57.2 °F 94% 29.83 in 6.2 mi SSW 5.8 mph - N/A   Scattered Clouds
2:00 AM 59.0 °F 57.2 °F 94% 29.83 in 6.2 mi SW 3.5 mph - N/A   Scattered Clouds
2:30 AM 59.0 °F 57.2 °F 94% 29.83 in 6.2 mi SW 5.8 mph - N/A   Scattered Clouds
3:00 AM 59.0 °F 57.2 °F 94% 29.83 in 6.2 mi SW 4.6 mph - N/A   Scattered Clouds
3:30 AM 59.0 °F 55.4 °F 88% 29.83 in 6.2 mi WSW 5.8 mph - N/A   Scattered Clouds
4:00 AM 57.2 °F 55.4 °F 94% 29.83 in 6.2 mi WSW 6.9 mph - N/A   Scattered Clouds
4:30 AM 57.2 °F 55.4 °F 94% 29.83 in 6.2 mi WSW 5.8 mph - N/A   Scattered Clouds
5:00 AM 57.2 °F 53.6 °F 88% 29.83 in 6.2 mi SW 6.9 mph - N/A   Partly Cloudy
5:30 AM 57.2 °F 53.6 °F 88% 29.83 in 6.2 mi WSW 8.1 mph - N/A   Partly Cloudy
6:00 AM 57.2 °F 55.4 °F 94% 29.83 in 6.2 mi SW 5.8 mph - N/A   Partly Cloudy
6:30 AM 57.2 °F 55.4 °F 94% 29.83 in 6.2 mi SW 5.8 mph - N/A   Partly Cloudy
7:00 AM 58 °F 56 °F 89% 29.85 in 19 mi WSW 6.7 mph - -   Scattered Clouds
7:00 AM 59.0 °F 55.4 °F 88% 29.83 in 6.2 mi WSW 5.8 mph - N/A   Partly Cloudy
7:30 AM 59.0 °F 55.4 °F 88% 29.83 in 6.2 mi SW 4.6 mph - N/A   Partly Cloudy
8:00 AM 60.8 °F 57.2 °F 88% 29.86 in 6.2 mi SSW 5.8 mph - N/A   Partly Cloudy
8:30 AM 62.6 °F 57.2 °F 82% 29.86 in 6.2 mi South 5.8 mph - N/A   Partly Cloudy
9:00 AM 64.4 °F 55.4 °F 73% 29.86 in 6.2 mi SSW 5.8 mph - N/A   Partly Cloudy
9:30 AM 64.4 °F 57.2 °F 77% 29.86 in 6.2 mi Variable 2.3 mph - N/A   Scattered Clouds
10:00 AM 68.0 °F 55.4 °F 64% 29.86 in 6.2 mi ESE 5.8 mph - N/A   Partly Cloudy
10:30 AM 68.0 °F 55.4 °F 64% 29.86 in 6.2 mi ESE 11.5 mph - N/A   Partly Cloudy
11:00 AM 68.0 °F 57.2 °F 68% 29.83 in 6.2 mi ESE 9.2 mph - N/A   Partly Cloudy
11:30 AM 64.4 °F 57.2 °F 77% 29.86 in 6.2 mi SE 11.5 mph - N/A Rain Light Rain Showers
12:00 PM 64.4 °F 59.0 °F 83% 29.86 in 6.2 mi ESE 13.8 mph - N/A Rain Light Rain Showers
12:30 PM 64.4 °F 59.0 °F 83% 29.86 in 6.2 mi SSE 13.8 mph - N/A Rain Light Rain Showers
1:00 PM 64 °F 59 °F 77% 29.86 in 16 mi South 6.7 mph - - Rain Light Rain Showers
1:00 PM 62.6 °F 59.0 °F 88% 29.83 in 6.2 mi South 8.1 mph - N/A Rain Light Rain Showers
1:30 PM 68.0 °F 57.2 °F 68% 29.83 in 6.2 mi South 4.6 mph - N/A   Mostly Cloudy
2:00 PM 69.8 °F 59.0 °F 68% 29.83 in 6.2 mi SE 9.2 mph - N/A   Mostly Cloudy
2:30 PM 68.0 °F 59.0 °F 73% 29.83 in 6.2 mi SE 11.5 mph - N/A   Mostly Cloudy
3:00 PM 68.0 °F 55.4 °F 64% 29.83 in 6.2 mi SE 13.8 mph - N/A   Mostly Cloudy
3:30 PM 64.4 °F 57.2 °F 77% 29.83 in 6.2 mi SE 13.8 mph - N/A   Scattered Clouds
4:00 PM 68.0 °F 57.2 °F 68% 29.83 in 6.2 mi South 8.1 mph - N/A Rain Light Rain Showers
4:30 PM 66.2 °F 57.2 °F 73% 29.83 in 6.2 mi ESE 6.9 mph - N/A   Scattered Clouds
5:00 PM 64.4 °F 59.0 °F 83% 29.83 in 6.2 mi SE 9.2 mph - N/A Rain Light Rain Showers
5:30 PM 62.6 °F 59.0 °F 88% 29.83 in 6.2 mi SE 9.2 mph - N/A Rain , Thunderstorm Light Thunderstorms and Rain
6:00 PM 64.4 °F 60.8 °F 88% 29.83 in 6.2 mi ESE 8.1 mph - N/A Thunderstorm Light Thunderstorm
6:30 PM 64.4 °F 57.2 °F 77% 29.80 in 6.2 mi SSE 9.2 mph - N/A   Scattered Clouds
7:00 PM 63 °F 58 °F 80% 29.82 in 31 mi SE 13.4 mph - -   Partly Cloudy
7:00 PM 62.6 °F 59.0 °F 88% 29.80 in 6.2 mi SE 11.5 mph - N/A   Scattered Clouds
7:30 PM 62.6 °F 59.0 °F 88% 29.80 in 6.2 mi SE 8.1 mph - N/A   Scattered Clouds
8:00 PM 62.6 °F 59.0 °F 88% 29.80 in 6.2 mi West 4.6 mph - N/A   Scattered Clouds
8:30 PM 62.6 °F 59.0 °F 88% 29.80 in 6.2 mi Variable 3.5 mph - N/A   Partly Cloudy
9:00 PM 60.8 °F 57.2 °F 88% 29.83 in 6.2 mi Calm Calm - N/A   Partly Cloudy
9:30 PM 59.0 °F 55.4 °F 88% 29.83 in 6.2 mi Calm Calm - N/A   Partly Cloudy
10:00 PM 59.0 °F 57.2 °F 94% 29.83 in 6.2 mi Calm Calm - N/A   Partly Cloudy
10:30 PM 57.2 °F 53.6 °F 88% 29.83 in 6.2 mi SSW 5.8 mph - N/A   Partly Cloudy
11:00 PM 60.8 °F 55.4 °F 82% 29.83 in 6.2 mi SSW 4.6 mph - N/A   Partly Cloudy
11:30 PM 59.0 °F 53.6 °F 82% 29.83 in 6.2 mi SSW 6.9 mph - N/A   Partly Cloudy